Starlink 11233

operational
NORAD ID: 61061 Int'l Des: 2024-164 Owner: SPXS Country: US Constellation: starlink
LEOCIRCULAR

About Starlink 11233

Description loading...

Live Position

Loading 3D Globe...

Upcoming Passes

Altitude History

Altitude vs Time

uPlot chart will show altitude changes over time

Two-Line Element Set

1 61061U 24164M 25304.10051679 .00001698 00000-0 18878-4 0 9994
2 61061 53.1597 230.2252 0001580 56.5935 303.5233 15.69705697 65060
Epoch: Oct 31, 2025 • Age: 39 hours

Current Status

Altitude 361.6 km
Velocity 7.69 km/s
Sub-Earth Point -2.86°S, 102.22°E
Launch Date Sep 13, 2024
Age 1.1 years
Type internet

Technical Details

Classification Payload
Mass 960.00 kg
Dry Mass 910.00 kg
Total Mass 960.00 kg
Length 0.30 m
Diameter 4.10 m
Span 29.00 m
Shape Box + pan
Manufacturer SPXS
Bus Type Starlink V2MD
Phase Status In Orbit
Owner/State SPXS/US

Large Constellations

Loading constellations...